Tracking 28052 objects as of 23-Sep-2023
HD Live streaming from Space Station
objects crossing your sky now

SL-8 DEB

Track SL-8 DEB now!
10-day predictions


NORAD ID: 21406
Int'l Code: 1991-009BV
Perigee: 1,443.4 km
Apogee: 1,655.8 km
Inclination: 73.9 °
Period: 116.9 minutes
Semi major axis: 7920 km
RCS: 0.1021 m2 (medium)
Launch date: February 12, 1991
Source: Commonwealth of Independent States (former USSR) (CIS)
Launch site: PLESETSK MISSILE AND SPACE COMPLEX (PKMTR)

Note: This is SATELLITE DEBRIS
Your satellite tracking list
Your tracking list is empty




NASA's NSSDC Master Catalog

Two Line Element Set (TLE):
1 21406U 91009BV  23265.09687729  .00000091  00000-0  85819-3 0  9992
2 21406  73.9122 294.2071 0134072  48.0061  17.3023 12.31581111457602
Source of the keplerian elements: AFSPC